Theta_e
315 314 314 317 321 322 322 320 319 319 322 322 317 319 317 316 317 315 317 316 317 318 316 315 315 315 317 318 318 322 321 325 326 319 319 322 323 327 331 334 336 337 337 336 336 336 336 336 336 336 336 335 333 331 331 332 331 329 329 331 330 325 323 322 322 322 322 321 320 317 318 326 329 328 328 327 326 325 322 313 310 310 308 308 308 309 309 309 310 310 310 310 310 310 310 310 312
315 314 315 318 321 323 321 319 324 326 327 320 315 320 316 316 317 317 320 318 319 320 318 318 317 318 319 320 320 322 325 327 326 324 325 325 326 329 332 334 335 337 336 336 336 336 337 336 336 336 336 335 332 330 331 331 329 328 328 329 330 326 323 322 322 322 322 321 318 315 317 326 330 329 327 323 322 321 318 313 311 311 308 308 308 309 309 309 309 309 309 309 309 309 309 309 310
314 314 315 320 322 321 323 321 323 328 328 320 318 322 318 315 318 319 318 317 319 319 319 318 318 320 319 321 321 321 326 328 328 327 325 325 327 328 332 333 334 337 336 336 336 336 337 336 336 336 336 335 332 330 330 330 329 328 328 328 328 326 324 322 322 322 321 319 316 314 317 326 330 327 323 320 320 318 317 315 313 312 309 307 307 308 308 309 308 308 308 307 308 308 308 308 308
313 317 318 321 322 320 334 333 328 331 325 320 320 322 322 320 319 317 315 317 318 317 317 318 319 320 320 322 322 321 325 327 328 326 323 325 325 325 330 332 334 336 336 336 336 336 337 336 336 336 336 336 334 332 331 330 330 328 327 327 327 326 324 322 322 321 320 317 315 316 319 326 328 324 322 322 323 321 320 318 315 313 311 309 307 307 307 307 307 306 306 306 306 306 306 306 306
315 321 321 321 323 321 331 328 328 332 321 322 322 321 329 327 319 313 314 319 316 315 316 318 321 320 321 321 320 322 324 325 326 324 323 324 322 324 330 332 334 335 336 336 336 336 336 337 336 336 336 336 335 333 332 331 330 329 328 327 326 325 323 322 321 320 318 316 317 319 321 325 325 324 325 326 326 324 322 320 317 315 314 311 308 306 305 305 305 305 305 305 305 305 305 305 305
319 321 320 320 320 316 323 321 322 326 320 325 323 321 328 322 315 312 313 316 315 315 316 317 319 319 320 321 323 322 322 324 324 323 323 323 321 325 330 331 333 334 335 336 336 336 336 337 337 336 336 335 335 333 333 332 330 330 329 328 326 324 323 322 320 318 317 319 321 322 323 325 325 325 327 328 327 325 324 323 320 318 316 314 312 308 305 305 305 305 304 305 305 305 306 306 306
321 321 319 321 319 316 326 326 321 322 317 317 320 322 320 314 313 313 312 314 315 314 315 316 317 318 320 321 322 321 323 323 321 322 322 323 322 325 328 329 333 334 335 336 336 336 336 337 337 336 336 336 335 334 333 332 331 330 330 329 326 325 323 321 319 318 319 323 324 325 325 325 326 326 327 328 328 327 325 324 322 320 318 316 314 311 307 305 304 304 304 305 305 306 307 307 307
322 321 318 324 326 324 331 326 320 323 316 310 314 318 315 313 313 312 313 314 315 314 316 317 316 318 319 319 319 320 321 320 320 321 321 323 325 325 326 329 332 333 334 335 335 335 335 335 336 336 336 336 335 334 334 332 332 331 330 330 329 326 324 322 320 319 322 325 326 327 327 327 326 325 325 326 327 327 326 325 324 322 320 317 315 313 310 306 304 304 304 305 305 306 307 307 306
321 320 319 326 328 328 331 321 318 319 317 315 312 314 315 314 313 311 313 313 313 315 317 317 315 316 317 317 319 318 318 318 319 320 320 323 329 329 327 329 332 333 334 335 335 334 334 334 335 336 336 336 335 335 334 333 332 332 331 331 330 327 325 323 320 321 323 326 327 328 328 328 327 326 325 325 325 325 325 324 324 322 319 318 315 313 312 307 305 304 304 305 305 306 306 306 306
320 320 317 324 327 325 324 319 321 320 317 317 312 313 315 313 313 312 313 313 313 316 317 316 315 315 316 318 318 317 317 317 317 318 319 322 329 331 328 331 333 333 334 334 334 334 334 334 333 334 335 334 334 335 335 333 333 333 332 331 330 328 325 324 322 322 324 326 327 328 328 327 326 326 325 324 323 322 322 322 322 321 318 317 315 313 312 309 306 304 304 304 304 305 305 305 305
320 318 318 332 333 322 322 320 322 322 318 316 312 314 314 313 312 311 313 314 314 315 316 315 316 316 316 318 318 317 317 316 316 317 318 322 327 329 328 331 333 332 334 334 333 333 333 333 333 332 333 334 333 334 334 334 333 333 333 332 331 329 327 324 323 324 325 326 327 327 326 326 326 325 325 324 324 323 320 320 320 319 318 318 316 314 312 309 306 304 304 304 304 304 305 305 305
319 320 330 339 331 323 326 322 318 323 323 319 316 314 314 313 313 313 314 314 314 315 315 315 316 317 317 318 317 317 316 315 315 316 318 322 325 325 327 330 332 333 335 334 333 333 333 332 333 332 332 333 333 332 333 334 333 333 332 332 332 331 328 325 324 326 326 327 328 327 325 324 325 324 325 325 326 324 320 320 320 318 319 319 317 315 313 310 307 305 304 304 303 303 303 303 304
318 323 342 333 319 323 324 320 319 323 324 320 316 314 314 313 313 314 314 314 314 314 315 315 316 317 318 317 316 316 316 315 315 315 318 321 323 324 327 328 330 333 334 334 333 331 332 332 332 332 332 334 334 332 332 334 334 333 332 332 332 331 330 327 326 327 327 327 328 326 324 323 324 324 325 326 327 326 322 320 320 319 320 319 317 315 314 313 311 310 308 307 307 306 306 306 305
318 321 339 328 313 320 320 320 320 319 321 320 315 312 314 313 314 314 314 316 314 314 315 314 316 316 316 316 316 316 315 314 314 315 317 319 322 324 328 327 325 330 332 331 332 330 331 332 331 330 331 334 335 333 331 333 334 333 332 332 332 331 331 329 328 328 327 327 326 323 323 322 322 323 324 326 326 326 323 321 320 320 321 320 318 316 316 316 316 316 315 315 315 315 315 314 312
318 314 329 328 316 318 318 319 320 319 322 320 315 313 314 313 314 314 314 317 315 314 315 315 316 316 316 317 316 316 314 314 314 314 316 317 320 324 329 327 324 328 328 326 326 326 327 328 329 330 331 332 333 332 330 330 333 332 332 332 331 331 331 331 330 329 328 327 325 323 323 322 322 322 323 324 326 327 324 322 321 320 321 321 318 317 317 318 319 320 320 321 321 321 320 319 318
316 315 329 330 317 318 317 316 319 320 320 316 314 314 314 314 314 314 314 315 315 314 315 315 316 315 316 316 316 316 315 315 314 314 315 316 317 322 327 328 328 328 327 328 327 325 325 324 324 325 327 330 330 331 330 330 332 331 331 332 331 331 331 331 331 329 328 327 326 324 324 323 322 322 322 323 326 327 325 323 322 321 322 322 320 318 319 319 321 322 322 322 322 322 321 320 320
314 322 334 328 320 321 318 317 319 321 322 315 312 314 315 315 314 314 315 314 315 315 315 316 315 316 315 315 316 315 315 315 314 314 315 316 316 317 323 326 329 329 327 332 333 330 329 324 323 325 324 325 328 330 330 330 331 330 331 333 332 331 332 332 331 330 329 328 327 326 325 325 324 323 322 322 325 327 326 324 323 322 322 323 322 320 322 322 322 323 323 323 323 322 321 320 320
320 333 332 323 323 324 321 320 316 318 322 314 312 315 315 316 314 314 315 314 314 314 314 315 315 316 316 315 315 315 315 314 314 314 314 315 316 315 318 321 325 325 324 326 326 328 329 324 324 330 326 320 323 325 327 329 329 328 330 332 331 330 332 332 331 330 330 329 328 327 327 326 325 324 323 323 324 327 327 325 324 323 322 324 323 322 323 324 323 324 324 323 323 322 321 320 320
322 332 332 329 328 320 316 316 312 313 316 313 313 314 314 316 315 314 316 314 313 315 315 314 315 315 315 316 315 315 315 315 314 314 314 314 314 315 315 317 319 319 320 319 318 319 322 323 322 325 323 321 326 324 323 328 327 328 329 329 330 329 331 332 332 331 330 330 329 329 328 327 326 325 325 324 325 327 327 325 324 323 323 325 324 323 324 325 324 324 323 323 322 321 321 321 321
315 326 335 333 323 314 313 314 313 314 314 313 313 313 314 315 314 315 315 314 313 314 315 314 315 315 315 316 315 315 315 315 315 314 314 314 314 314 314 315 315 315 316 316 317 316 316 321 321 320 318 322 331 328 321 324 326 329 328 327 329 328 330 331 332 332 331 330 330 329 328 328 327 326 326 326 326 327 327 326 325 323 324 325 325 324 324 325 325 324 324 323 323 322 321 321 321
313 323 332 322 313 315 316 314 315 314 314 313 313 313 314 314 315 315 314 315 315 315 315 315 316 316 316 316 315 315 315 315 315 314 314 314 314 314 314 314 314 314 314 314 315 315 314 316 318 319 317 318 324 324 319 320 324 327 326 327 328 328 328 330 332 332 331 330 330 330 330 330 328 328 328 327 328 328 328 327 325 324 324 326 326 325 325 326 325 325 324 324 324 322 321 321 321
314 316 318 314 311 317 316 314 315 314 314 313 312 314 315 314 314 314 314 317 318 316 316 316 316 316 316 316 316 316 315 315 315 314 314 314 314 313 314 313 314 314 313 314 313 314 314 314 315 315 316 316 316 317 315 316 320 321 323 325 326 327 327 329 330 331 330 330 330 330 330 330 329 329 330 329 329 329 328 328 326 325 326 326 326 325 325 325 325 325 324 324 323 322 321 321 320
319 315 311 312 313 316 316 314 315 314 314 313 312 314 314 314 314 314 313 315 317 316 316 316 316 316 316 316 316 316 316 315 315 315 315 314 314 314 314 313 314 314 313 314 313 314 313 313 314 313 315 315 314 315 314 315 317 318 319 320 322 323 326 327 329 330 330 329 330 331 331 331 329 329 330 330 331 330 329 328 327 327 327 327 327 326 325 323 325 325 325 325 323 322 321 320 320
321 318 312 313 314 314 315 314 315 314 314 314 314 315 314 315 315 314 313 316 316 316 317 316 316 316 316 316 316 316 316 316 315 315 315 314 314 313 314 313 313 314 314 314 313 314 314 314 314 313 314 314 315 315 314 315 316 316 316 319 325 325 323 324 327 328 329 329 329 330 331 331 330 329 329 330 331 330 329 329 328 328 327 327 327 327 325 323 323 326 326 325 324 322 321 320 319
319 318 313 314 314 314 315 315 315 315 315 314 314 315 314 314 314 312 314 317 316 316 317 316 317 316 316 316 316 316 316 316 315 315 315 314 314 313 313 313 313 313 314 314 314 314 314 314 314 314 314 313 315 315 315 315 315 318 315 318 327 326 320 322 326 326 327 330 329 328 330 330 329 329 329 330 332 330 329 329 328 328 327 326 326 326 327 324 323 325 326 324 323 322 320 319 318
315 316 314 314 314 314 315 315 315 315 315 315 315 315 314 313 313 314 316 317 316 316 316 316 317 316 316 316 316 316 316 316 316 315 315 314 314 313 313 313 313 313 314 314 314 314 314 314 314 314 313 313 314 314 316 315 315 318 316 318 323 322 319 320 324 325 327 332 330 328 329 329 329 328 329 330 331 331 330 329 329 328 326 326 326 327 327 325 324 325 324 323 322 322 321 319 317
314 314 314 314 314 315 315 315 315 314 314 314 315 316 314 312 313 316 317 316 316 316 315 316 316 316 316 316 316 316 316 316 315 315 315 314 314 314 314 313 313 313 313 314 314 314 314 313 313 313 312 312 313 314 315 314 316 315 317 323 322 319 317 319 324 324 324 329 328 328 329 329 329 328 330 330 330 330 329 329 329 327 326 326 326 326 327 325 324 324 323 324 323 322 320 318 317
314 314 315 314 313 314 314 315 314 314 315 314 314 314 313 312 313 316 315 315 316 315 316 315 315 316 315 316 316 315 316 315 315 315 315 315 315 314 314 314 313 313 313 313 313 313 313 312 312 312 312 312 312 313 313 314 316 315 317 321 321 325 324 325 329 323 321 327 326 328 329 327 328 328 330 331 330 330 329 329 329 327 328 328 327 326 326 325 323 324 324 324 323 321 319 318 317
314 315 318 319 319 318 313 312 313 313 315 313 313 315 316 316 314 315 314 314 316 315 315 315 315 315 315 315 315 315 316 315 315 315 315 315 315 315 314 314 313 313 313 313 312 312 312 311 312 312 312 312 312 312 313 313 315 316 316 317 321 329 327 324 327 322 323 329 325 327 328 324 326 327 329 331 330 330 329 328 329 327 326 326 327 326 325 324 324 324 324 323 322 320 319 319 318
316 314 316 323 325 322 313 310 312 312 313 313 313 318 326 325 316 313 314 314 315 315 315 315 315 315 314 315 315 315 315 315 316 315 315 315 315 315 314 314 313 313 313 312 312 312 312 312 312 312 312 312 312 311 311 313 315 316 315 319 324 327 326 324 326 327 330 331 327 329 331 326 326 326 326 328 330 330 329 329 327 324 323 324 325 324 324 324 325 325 324 323 321 320 319 319 318
320 313 319 326 320 323 318 309 311 314 313 312 314 318 325 327 317 312 314 314 314 314 315 315 315 315 314 315 314 315 315 315 315 315 315 315 314 315 314 314 313 313 313 312 313 312 312 313 312 313 312 312 312 311 311 312 314 317 316 320 324 324 328 330 329 329 328 327 324 325 328 326 327 327 325 325 326 326 326 325 324 324 323 322 322 322 324 326 325 324 324 323 321 320 319 318 317
325 315 326 328 317 329 327 309 309 315 313 310 314 319 321 321 315 313 314 313 313 313 314 314 314 315 314 315 315 315 315 315 315 315 315 315 314 314 314 314 313 313 313 313 313 312 312 313 313 313 312 313 312 311 312 311 314 317 315 317 322 324 328 328 326 326 324 325 326 324 323 324 328 330 328 326 324 323 323 322 325 327 322 319 322 324 325 325 324 324 323 322 320 319 317 317 317
329 318 324 328 319 327 326 311 308 311 312 311 313 318 323 320 313 312 313 313 313 312 314 315 314 315 314 314 315 314 315 315 315 315 315 315 314 314 314 313 313 313 313 313 312 312 312 312 313 313 313 313 312 312 312 312 314 315 316 320 323 325 329 327 324 326 325 325 328 326 324 324 328 329 328 327 325 325 326 325 328 327 320 321 325 326 325 324 323 324 323 321 319 318 317 318 317
330 320 320 326 322 321 323 321 312 307 312 314 313 315 319 319 313 312 314 312 312 312 314 316 315 315 315 314 314 314 315 315 315 316 315 315 314 314 314 313 313 313 313 313 312 312 312 312 312 312 313 313 312 313 311 312 315 315 320 325 322 322 326 324 321 324 326 324 325 323 321 324 326 326 326 326 326 328 328 326 327 323 319 323 327 325 324 324 323 322 321 319 318 319 318 318 317
329 325 324 324 320 317 322 327 315 310 314 315 315 315 316 316 312 312 314 312 312 312 313 314 315 315 315 315 315 315 315 315 317 317 316 315 315 314 314 313 313 312 313 313 313 313 312 312 313 312 313 313 312 313 312 313 317 317 320 323 321 323 326 325 323 325 327 326 325 321 319 322 323 324 325 326 326 325 322 321 322 322 322 324 325 324 324 323 322 321 319 318 318 318 317 315 314
327 332 332 326 322 321 324 326 316 310 314 316 316 316 316 315 314 312 313 312 310 312 313 312 313 314 314 315 316 316 316 317 318 317 316 315 315 314 314 313 313 312 312 313 313 313 312 312 313 313 313 313 312 313 312 314 316 318 321 320 322 328 329 327 327 328 327 327 325 321 320 322 322 322 323 322 321 320 319 319 319 321 324 324 324 323 322 321 320 319 318 317 317 317 314 311 311
324 328 329 325 323 324 325 324 314 308 313 321 318 315 316 315 314 311 311 311 309 309 310 311 313 314 315 316 316 317 317 318 318 317 317 316 315 314 314 313 312 312 312 312 313 312 313 313 312 313 313 313 313 313 312 314 317 320 325 324 323 327 327 327 327 325 324 323 322 320 320 322 320 319 321 320 317 318 323 323 321 321 322 323 323 321 321 320 320 318 316 315 315 313 310 309 310
325 324 322 323 323 325 323 319 315 309 313 322 319 316 317 315 314 311 309 310 309 310 310 311 314 315 316 317 316 318 318 318 318 317 317 316 316 315 314 314 313 313 312 312 313 313 313 312 312 312 312 313 313 312 313 318 320 321 324 324 321 321 324 325 323 321 320 320 319 318 318 322 321 320 321 318 315 319 324 325 323 321 322 322 321 321 321 319 317 313 311 312 311 309 307 307 308
327 324 320 323 323 322 321 318 316 313 314 322 321 317 317 315 314 312 309 310 311 313 313 313 315 315 315 317 317 318 318 318 318 317 318 317 316 316 315 315 314 313 312 312 312 313 313 312 312 312 312 312 312 312 315 318 319 320 322 322 322 323 323 322 322 322 321 319 317 316 318 321 321 318 317 316 316 319 322 321 322 322 322 322 321 321 319 315 310 307 307 306 305 307 307 306 306
324 323 321 324 322 320 322 320 317 315 314 318 320 317 316 315 315 314 311 310 311 313 314 314 314 314 315 316 316 316 317 318 318 317 317 317 316 316 316 315 315 314 313 312 312 312 313 312 312 312 312 312 312 312 315 315 315 317 319 320 323 324 322 322 323 322 320 319 316 316 319 319 318 316 315 317 319 320 320 321 322 321 321 322 320 318 313 307 304 303 304 303 301 304 305 305 307
321 321 321 323 322 320 321 321 319 320 318 316 319 321 322 322 321 321 316 311 311 312 313 314 315 316 316 315 315 316 317 317 318 317 317 316 316 316 317 316 315 315 313 313 312 312 313 312 312 312 311 311 312 312 312 313 315 317 318 319 319 320 321 323 322 320 320 319 316 317 319 316 317 319 317 317 318 319 320 321 321 321 321 320 315 310 305 303 302 300 299 300 300 300 301 302 305
323 323 321 320 321 320 319 320 321 324 326 319 316 323 332 332 329 327 324 321 320 316 311 313 317 318 316 316 317 318 318 318 318 318 317 317 317 316 316 315 315 315 314 314 312 312 311 312 311 311 311 311 312 312 311 311 315 320 321 320 320 321 323 321 319 321 320 316 316 318 317 315 317 321 319 317 318 319 320 320 320 319 317 312 307 304 302 300 299 299 298 298 298 299 299 300 301
324 323 320 317 316 318 318 319 320 326 329 317 313 321 329 328 325 323 324 325 323 317 312 313 316 318 316 317 319 319 319 319 318 318 318 318 317 317 316 315 315 315 314 313 312 311 310 311 311 310 311 311 311 312 312 312 314 319 323 323 322 322 321 318 318 320 317 314 317 317 316 316 317 319 319 317 319 320 319 319 317 313 308 304 302 301 300 299 298 298 298 297 297 297 298 298 298
327 320 318 318 316 318 320 319 320 324 325 318 316 322 324 323 322 321 321 321 321 320 319 316 313 315 317 317 319 319 319 319 318 318 318 318 317 317 317 316 315 314 313 312 311 311 310 309 310 310 310 311 311 311 311 312 314 316 319 320 320 320 318 316 317 317 315 315 317 316 316 317 316 317 318 318 319 319 318 316 311 306 303 301 300 299 298 298 298 298 298 298 297 297 297 297 296
324 314 315 318 317 321 322 322 323 321 321 322 321 320 322 327 327 324 321 321 324 325 324 320 314 314 317 317 318 318 318 318 318 319 318 318 318 317 316 315 314 313 312 312 311 311 309 309 309 310 310 311 311 311 310 312 314 314 314 316 318 319 318 317 317 317 315 316 316 315 316 317 316 316 317 318 318 317 315 310 305 302 300 299 298 297 297 298 298 299 299 298 297 297 297 296 296
315 310 315 318 319 322 324 326 327 323 322 324 323 321 322 326 327 326 322 323 327 324 322 318 313 315 318 318 319 318 319 319 319 319 318 318 318 316 315 314 313 312 311 311 311 310 309 308 309 310 310 310 310 311 311 311 313 313 313 316 318 319 318 318 319 318 315 315 316 315 314 315 316 316 316 317 316 313 309 305 302 300 299 298 297 297 297 298 299 299 299 298 298 297 297 296 296
310 316 324 323 324 324 325 326 324 324 326 323 321 323 322 323 327 328 323 324 328 324 323 323 318 317 319 319 319 319 319 319 318 318 318 318 317 316 315 314 313 312 311 310 310 310 309 308 309 309 309 310 309 311 312 311 312 313 313 315 318 318 319 319 319 317 315 315 315 314 314 314 314 316 317 315 312 308 304 302 299 298 297 297 297 297 298 299 300 299 299 299 298 297 297 297 296
314 328 329 324 326 324 324 326 323 326 328 321 318 319 319 322 328 328 323 322 324 321 324 330 324 319 319 319 319 319 318 318 318 318 317 317 317 317 316 315 314 312 311 311 310 310 309 308 309 309 309 310 309 310 312 311 313 316 315 315 317 317 317 316 316 315 315 315 314 313 313 312 313 316 315 311 307 304 301 299 298 297 297 296 296 297 298 299 300 300 299 299 298 297 297 297 297
319 328 326 324 327 324 324 326 323 325 323 315 314 317 317 320 322 322 321 320 321 316 315 320 317 315 319 319 318 318 318 318 318 318 318 317 317 317 316 315 314 313 312 311 310 310 309 308 308 309 310 310 309 311 312 311 313 317 318 317 317 315 314 314 313 314 315 315 314 312 310 311 313 314 311 306 303 301 299 297 297 296 296 296 296 297 299 300 300 300 299 299 298 298 298 298 298
319 323 324 325 326 326 331 327 320 322 320 313 312 317 320 321 320 320 320 317 317 315 312 314 314 314 317 318 318 319 319 319 319 318 318 318 317 317 316 315 314 314 313 312 311 310 309 308 308 308 310 310 310 311 312 311 313 315 315 316 315 313 313 313 313 314 315 313 313 312 310 310 313 311 306 303 301 299 297 297 296 296 296 296 297 298 300 300 300 299 299 299 298 298 298 298 298
318 321 322 324 327 329 333 330 326 326 324 317 313 317 325 327 324 320 315 312 312 313 314 314 314 315 315 316 318 319 319 319 318 318 317 317 317 316 316 315 315 314 313 312 311 310 309 309 308 308 309 310 310 311 312 312 312 313 314 315 313 312 313 313 312 313 313 311 311 311 310 311 311 307 303 301 299 297 297 296 296 296 296 297 298 299 300 300 300 299 299 299 298 298 298 298 297
318 320 320 323 324 324 322 320 322 323 323 323 318 320 325 324 321 317 312 313 313 312 312 313 314 315 314 315 318 319 319 319 318 318 317 317 316 316 316 315 315 314 313 312 311 311 310 309 309 309 309 309 310 311 311 312 312 312 313 312 311 311 313 314 313 312 312 311 310 311 311 311 307 303 301 299 297 296 296 296 296 296 296 297 298 300 300 300 300 299 299 299 298 298 298 297 297
318 318 321 319 316 322 324 316 313 314 319 324 321 322 325 322 320 319 317 320 319 314 312 311 313 314 313 315 319 319 319 319 318 318 317 317 317 316 316 315 314 314 313 313 312 311 311 310 309 309 309 309 310 311 311 311 311 310 310 309 310 312 314 314 313 312 311 310 310 311 312 309 304 301 299 298 297 296 296 295 296 296 296 298 299 300 300 300 300 299 298 298 298 298 297 297 297
321 321 320 316 313 321 326 322 321 320 321 325 322 321 325 323 322 321 319 320 320 318 316 312 311 312 313 316 319 319 319 319 319 319 318 317 317 316 316 315 315 314 313 312 312 311 310 310 309 309 309 309 309 310 311 311 310 310 309 310 310 312 313 313 312 311 310 310 311 312 312 306 302 300 298 297 296 296 296 295 295 296 297 298 299 300 300 299 299 299 298 298 297 297 297 296 296
317 319 317 318 322 324 321 322 328 327 324 328 325 319 320 321 322 322 321 325 329 326 324 323 315 311 313 318 319 319 319 319 319 319 318 317 317 316 316 315 315 314 313 312 311 310 310 309 309 308 308 309 309 310 310 310 310 310 310 310 310 311 312 312 310 309 309 310 311 313 311 304 300 298 297 296 296 296 295 295 295 296 297 298 299 300 300 299 299 298 298 298 297 297 296 296 296
312 314 314 317 322 323 322 321 323 325 325 327 327 323 321 320 322 324 320 325 334 332 332 332 320 313 316 319 319 319 319 319 319 318 318 317 317 317 315 315 314 313 313 312 311 310 309 309 308 308 308 309 309 309 310 310 309 310 311 311 311 311 311 310 308 309 310 311 311 312 309 303 299 298 297 296 296 296 296 296 296 296 297 299 299 299 299 299 298 298 297 297 296 296 296 295 295
315 317 317 317 318 319 321 320 319 324 327 327 327 323 323 324 322 323 320 322 327 330 332 329 319 316 319 319 318 320 319 319 319 318 318 318 317 317 316 314 314 313 312 311 311 310 310 309 308 308 308 308 309 309 309 309 308 309 311 311 311 311 309 307 307 309 310 310 310 310 307 301 299 297 296 296 296 295 295 296 296 296 297 298 299 299 299 298 297 297 296 296 295 295 295 295 294
317 318 318 318 317 318 320 319 318 320 322 325 326 321 322 327 321 319 322 323 320 319 321 319 317 317 320 319 318 320 319 319 319 318 318 318 318 317 316 315 314 313 312 311 311 310 309 309 308 308 308 308 309 309 309 308 307 308 310 311 311 311 310 308 309 310 311 310 309 308 305 300 298 297 296 296 295 295 295 295 296 296 297 298 298 299 298 297 297 296 296 295 295 295 295 294 293
Wind_Speed
6 4 3 0 1 2 2 3 3 4 4 2 1 1 2 2 1 2 2 2 0 1 2 5 9 10 6 4 6 6 6 3 4 3 4 9 15 15 12 12 14 15 12 12 13 12 11 11 10 10 9 10 10 10 10 10 10 10 10 10 11 10 10 10 9 9 10 11 11 10 11 12 10 9 9 10 12 13 16 17 18 19 19 19 18 16 14 13 12 11 10 10 10 9 10 10 11
6 4 2 2 2 3 0 4 2 3 5 2 1 2 2 2 1 5 5 3 4 7 11 12 12 10 6 7 7 7 7 5 6 8 11 16 16 15 13 12 13 14 14 13 13 12 11 11 10 8 8 8 9 10 10 10 9 10 10 10 10 10 9 8 8 8 9 10 10 9 10 12 10 9 10 11 12 13 15 17 18 19 19 20 19 17 15 14 13 12 11 11 10 10 11 11 11
5 3 1 3 2 4 3 4 2 2 5 3 3 3 1 0 4 6 7 7 12 15 14 11 8 6 3 4 4 3 4 6 9 13 15 17 15 15 14 13 12 13 14 13 12 11 10 10 9 7 8 7 8 8 9 9 9 10 10 10 11 9 8 7 7 7 8 9 10 9 10 13 10 9 12 14 15 15 16 17 18 19 20 20 20 18 16 15 13 13 12 12 12 11 12 12 12
2 1 2 3 1 3 4 4 2 5 3 3 2 4 2 4 7 6 6 12 16 13 7 5 5 3 3 3 4 5 6 7 10 13 15 16 14 14 15 15 14 13 14 13 12 11 10 9 9 9 8 7 7 7 7 7 8 9 9 10 10 9 7 6 6 6 7 9 9 9 11 12 11 11 14 16 18 18 18 18 18 19 20 21 20 19 17 15 15 14 14 13 13 13 13 13 14
2 1 1 2 1 1 4 3 3 4 3 5 2 4 5 6 7 4 7 14 14 7 3 3 3 3 5 4 4 4 6 8 10 13 14 14 13 14 16 17 17 16 14 13 12 11 10 9 9 9 9 8 7 6 6 7 8 8 9 9 9 8 7 7 6 6 7 8 9 11 11 12 12 12 15 17 18 18 19 19 19 19 20 21 20 20 18 16 15 15 15 15 15 15 15 15 16
4 4 3 3 3 2 3 3 2 1 4 5 3 5 6 7 8 6 7 10 10 5 1 1 2 4 4 4 4 6 9 9 10 12 13 13 13 16 17 18 18 17 15 14 12 11 10 9 9 9 9 8 7 5 5 6 7 8 8 8 8 7 7 7 7 6 8 9 10 11 12 12 12 13 14 15 16 17 18 18 19 19 19 20 20 19 18 17 16 16 16 16 15 15 16 16 17
5 4 5 6 5 4 3 3 3 2 2 4 3 5 6 8 9 8 7 5 5 6 5 3 5 6 3 3 4 7 9 9 11 11 12 13 15 17 18 19 18 17 17 15 13 11 10 9 9 9 9 8 7 6 5 5 6 6 7 7 7 7 7 7 7 8 8 9 11 11 12 12 12 13 13 14 15 15 16 17 18 18 18 18 18 18 18 17 16 16 16 16 15 15 16 16 16
5 1 2 4 4 5 4 3 2 2 1 3 3 5 7 10 10 8 4 4 4 5 6 7 7 3 2 4 3 6 8 9 11 11 13 14 16 17 18 19 18 18 18 16 14 12 11 10 9 9 9 8 7 6 5 5 5 6 6 6 6 6 7 7 8 8 9 9 10 10 11 12 11 12 12 13 13 13 14 15 16 17 17 17 17 17 17 17 16 16 16 15 15 16 16 16 16
3 1 2 5 3 3 3 2 1 2 2 4 4 4 5 9 9 6 3 3 4 6 10 11 3 1 4 5 3 8 9 9 11 11 13 14 16 16 16 18 17 18 19 17 16 13 12 10 9 9 9 8 7 6 5 5 5 6 5 5 6 6 6 7 8 8 8 9 9 9 9 10 10 11 12 12 12 12 12 13 15 16 17 17 16 16 16 16 16 15 15 15 16 16 16 15 15
2 2 4 4 3 4 3 1 1 1 4 5 4 3 4 8 8 4 4 4 4 8 11 9 1 1 6 5 4 8 9 10 11 12 13 14 16 16 15 16 15 17 20 19 17 14 13 11 10 10 9 8 7 6 6 5 5 5 5 5 5 6 6 6 7 8 8 8 8 8 8 9 9 10 11 11 11 11 12 13 14 15 16 16 16 15 15 15 15 15 15 15 15 15 15 15 15
2 3 5 5 4 2 2 2 2 3 4 5 5 4 4 8 6 3 5 5 5 7 9 6 3 6 8 3 6 9 10 11 12 12 13 14 15 15 16 15 14 16 18 19 17 15 14 13 11 10 10 8 7 7 7 6 5 5 5 4 4 5 5 5 6 7 7 7 7 7 7 8 8 9 10 10 10 11 12 13 13 14 15 16 16 16 15 15 16 15 15 15 15 15 15 14 14
1 2 4 4 3 3 4 4 3 5 5 5 2 3 5 8 5 4 6 6 7 5 7 7 3 8 5 1 7 10 11 12 12 13 13 14 14 14 15 15 14 15 17 17 15 14 13 13 13 11 11 9 9 8 7 7 6 5 5 4 4 4 4 5 5 6 6 6 7 6 6 6 7 7 8 8 9 10 11 12 13 14 15 16 16 16 16 16 16 17 16 16 16 15 15 15 14
2 2 5 4 2 3 4 4 2 3 4 4 4 3 5 8 6 8 10 7 7 5 6 7 5 8 3 2 7 11 13 13 13 13 13 14 14 14 14 15 14 15 16 16 15 15 14 13 13 13 12 11 9 9 7 8 7 6 5 5 5 4 3 4 6 6 6 6 5 5 4 5 5 6 6 7 7 8 10 11 12 14 15 15 15 16 16 16 17 17 17 18 17 17 17 16 16
4 4 5 3 2 2 4 3 1 2 3 5 4 3 6 7 6 10 11 6 6 5 4 7 8 6 3 3 6 13 16 14 14 13 14 14 14 15 14 15 15 16 16 15 16 16 16 15 15 14 14 13 11 10 9 9 9 7 7 6 6 4 4 4 6 6 6 5 4 3 3 3 3 4 5 5 6 7 9 10 11 12 13 13 13 14 15 16 17 17 18 18 18 18 17 16 16
6 6 5 4 2 1 3 2 2 5 4 5 4 5 7 5 5 11 10 5 5 5 4 7 10 4 3 5 4 11 16 15 16 14 14 14 14 15 14 15 15 16 16 15 16 16 17 17 16 16 16 15 13 13 11 11 10 9 9 8 8 6 6 6 5 7 6 5 4 2 2 2 2 3 3 4 4 5 7 8 9 11 11 12 12 13 14 14 15 16 16 16 16 16 15 15 15
6 5 5 4 2 2 3 2 3 3 5 5 6 7 5 4 7 10 7 4 4 7 7 8 11 6 4 7 4 7 15 17 17 16 15 14 14 15 16 15 14 15 14 15 15 14 14 14 15 16 17 17 17 15 14 14 12 12 11 10 9 8 8 8 7 8 6 4 3 2 2 1 1 1 2 2 3 4 5 6 7 8 9 10 10 11 12 13 13 14 14 15 15 14 14 14 15
5 4 5 3 3 4 4 4 4 4 5 6 7 9 6 3 8 9 6 5 5 9 9 8 12 12 8 8 6 8 15 18 17 17 16 15 15 14 15 16 16 16 14 18 18 15 15 13 12 14 16 17 19 19 18 17 15 14 13 12 11 10 11 10 9 9 7 5 4 3 2 1 1 0 1 1 2 2 3 4 5 6 8 9 9 10 11 12 12 12 13 13 13 13 13 13 14
3 3 4 3 4 4 6 8 7 4 3 7 9 11 8 4 9 9 5 5 6 9 11 10 11 14 13 10 8 9 15 18 18 18 17 17 17 15 16 16 17 17 16 18 19 18 17 14 13 15 15 15 17 19 19 19 18 17 15 13 12 11 12 11 10 10 8 6 5 4 3 2 2 2 2 1 1 1 2 3 4 5 7 8 8 8 9 10 10 10 11 11 12 12 12 12 13
3 3 4 3 6 4 5 9 9 3 1 7 10 10 9 6 10 10 4 3 5 6 9 10 11 14 14 12 10 10 16 19 19 19 18 17 17 17 16 16 17 17 16 16 16 16 16 15 16 17 15 12 13 15 16 19 18 16 17 16 14 13 13 13 12 11 9 8 7 6 6 4 4 4 3 2 2 1 1 2 3 3 5 6 6 6 7 8 8 8 9 10 11 11 10 11 11
2 4 3 5 7 3 4 8 8 5 0 6 10 8 8 7 10 10 5 3 3 6 9 11 13 15 14 13 12 12 16 19 20 19 19 18 17 17 16 16 16 16 16 17 16 16 15 15 17 17 15 13 15 16 15 16 16 16 17 16 15 15 14 14 14 12 9 9 9 8 7 5 5 5 4 3 3 2 1 1 2 3 4 5 5 5 5 7 7 7 7 8 10 10 9 9 9
1 4 3 4 6 2 3 6 6 7 3 5 9 7 5 7 9 9 6 3 4 11 16 15 14 13 13 14 14 13 16 19 21 21 20 19 18 17 17 17 16 16 17 17 17 16 15 16 17 17 15 15 18 19 16 14 16 17 17 17 17 17 16 16 16 13 11 11 10 9 8 7 7 5 5 5 4 3 2 2 4 4 3 3 5 5 5 6 6 6 6 6 9 10 9 8 8
3 1 2 4 6 2 1 3 3 6 5 6 9 6 5 6 8 10 9 6 7 12 15 16 15 12 11 13 14 14 16 18 20 21 21 20 19 18 18 18 18 18 18 18 17 17 16 16 16 16 16 16 17 18 16 14 15 16 17 17 18 18 18 18 18 16 14 13 12 10 9 9 7 5 6 6 5 4 3 4 5 5 3 3 4 4 5 7 7 5 5 7 8 10 9 8 7
2 2 1 5 4 1 2 1 2 5 7 10 9 6 5 6 6 9 13 15 15 11 8 9 12 13 12 12 14 15 15 17 19 19 20 19 19 18 18 19 18 18 18 18 18 17 17 16 16 16 16 17 16 16 15 14 15 16 17 17 17 18 19 19 19 18 16 15 13 11 11 10 7 6 8 8 7 6 5 6 6 5 4 3 3 3 4 7 6 4 3 6 8 8 9 8 6
4 2 1 5 3 1 3 2 3 5 6 9 8 5 5 6 6 5 14 22 20 16 12 8 9 12 14 15 16 16 15 17 17 18 18 19 18 18 19 19 19 19 18 18 18 18 17 17 17 17 17 17 17 18 17 16 17 17 17 16 17 18 18 19 19 19 18 17 15 14 13 11 8 8 8 8 10 8 5 6 7 6 4 3 3 2 3 5 5 1 2 5 7 8 8 8 8
4 2 2 4 2 2 4 3 4 4 3 6 6 5 4 5 6 7 17 22 18 19 19 16 14 13 15 17 18 17 17 18 18 18 19 19 19 20 20 20 20 20 19 19 19 18 18 18 18 18 18 17 18 19 19 18 18 18 18 17 20 20 19 18 18 19 17 16 17 15 14 13 11 10 9 9 13 9 5 7 7 5 3 3 3 1 2 2 3 1 2 3 6 7 7 8 9
2 4 3 2 1 0 3 3 4 4 3 5 5 4 3 4 4 10 21 22 19 19 19 19 19 17 17 17 19 19 19 19 19 19 19 19 21 22 21 21 21 20 19 19 19 19 19 19 20 20 20 19 19 20 21 21 20 21 20 18 21 21 21 18 18 19 17 19 20 17 16 15 13 13 12 12 15 11 8 9 8 6 4 4 3 2 6 4 1 3 2 3 4 3 5 7 8
3 5 4 3 1 1 2 4 3 3 3 3 5 4 4 2 1 8 14 13 15 18 18 18 19 19 19 18 19 20 21 20 20 20 20 21 21 21 20 21 20 19 19 19 19 19 19 21 21 22 21 21 21 21 22 23 22 22 20 21 22 21 20 16 16 17 18 22 20 16 17 17 16 15 15 14 14 13 10 10 11 9 5 6 6 5 7 7 4 5 5 3 2 2 5 6 6
3 3 2 3 4 2 4 4 4 3 2 4 4 3 5 0 2 12 14 10 12 13 15 18 18 19 19 19 20 21 22 21 21 23 22 21 19 19 19 19 19 19 19 18 18 19 19 20 21 21 20 21 21 21 22 23 24 23 22 24 21 19 17 14 16 16 15 18 16 17 19 18 18 17 17 15 14 13 11 13 14 10 7 9 10 6 8 9 7 8 7 4 2 4 7 7 5
4 4 1 5 7 3 3 3 4 4 1 2 3 2 6 3 10 18 14 12 14 14 16 17 17 19 19 20 21 22 23 22 24 25 23 21 19 19 20 19 19 19 19 18 19 19 19 19 19 19 19 20 21 21 22 23 25 24 23 23 19 21 21 17 19 16 12 15 14 14 16 16 17 17 17 16 14 14 13 14 15 11 9 10 12 11 11 11 11 11 9 5 3 5 6 5 4
2 4 2 3 7 4 2 1 2 5 2 2 6 2 7 8 15 17 12 12 13 15 17 17 17 18 19 20 22 23 23 25 26 26 24 22 21 21 21 21 20 20 19 19 19 19 19 19 19 19 19 19 20 21 22 23 25 25 23 21 20 22 20 17 18 15 15 17 15 15 16 17 16 15 16 16 14 14 14 15 14 11 9 10 13 14 13 14 16 14 9 5 4 5 4 2 4
1 1 2 2 2 4 4 0 5 5 3 5 7 2 7 9 12 10 11 14 13 16 18 17 18 18 19 21 22 24 24 26 27 26 25 24 23 23 22 23 22 21 21 20 20 20 20 20 19 19 19 19 20 21 21 23 24 25 23 22 23 21 19 20 20 18 19 20 18 18 21 18 14 14 14 14 15 14 14 14 14 12 10 12 13 12 14 17 17 14 8 6 6 6 5 4 4
3 0 2 3 1 5 8 1 7 4 1 6 7 2 7 10 12 8 10 14 14 18 19 18 19 19 20 22 23 25 25 26 28 28 28 27 26 25 24 24 24 24 23 22 21 21 21 21 20 19 19 19 20 20 21 23 24 26 24 22 22 21 22 24 22 20 19 19 18 19 21 16 14 15 13 13 14 12 13 13 15 15 12 12 11 11 15 17 17 13 9 8 8 6 5 5 5
4 1 2 2 1 3 6 2 4 1 2 4 3 3 4 5 6 5 3 9 13 17 19 19 20 21 21 23 24 26 26 28 29 30 29 29 28 27 26 26 26 26 25 24 23 23 23 22 21 19 19 19 20 20 21 23 24 26 23 21 22 22 24 24 21 20 19 20 21 21 19 15 16 19 16 16 14 12 15 14 16 17 12 10 10 13 16 16 15 12 9 9 7 5 5 6 6
4 2 1 3 2 2 3 3 3 1 2 3 3 3 7 8 9 8 5 7 10 15 20 20 20 21 22 23 25 27 28 30 30 29 28 29 29 28 27 27 28 28 27 26 25 25 25 24 22 21 20 20 20 21 21 22 24 24 22 24 24 21 25 24 20 22 23 23 25 24 21 20 22 22 19 19 18 18 19 18 18 17 12 11 12 15 16 15 13 11 10 8 6 7 8 8 8
3 2 1 3 2 2 4 4 2 2 1 2 3 5 11 12 14 20 19 13 14 19 23 24 24 24 24 25 27 28 29 30 28 26 26 28 29 28 28 28 29 30 29 28 27 27 27 25 24 23 22 21 21 21 21 22 24 23 24 26 22 20 25 24 20 23 23 22 25 24 19 21 23 21 20 20 21 20 17 16 16 15 13 13 15 16 15 14 13 12 10 8 10 11 9 9 9
5 5 5 3 3 3 5 5 4 2 1 4 6 7 11 12 11 18 23 17 17 24 27 28 29 29 29 29 31 31 32 32 29 26 27 27 28 29 29 29 30 31 31 30 29 29 28 27 26 25 24 23 22 22 21 22 24 23 25 24 20 23 26 23 21 22 21 22 26 24 19 20 20 18 18 19 18 15 13 13 13 15 16 16 16 15 15 14 14 13 11 10 15 15 10 8 8
6 5 3 4 4 5 5 3 5 1 2 6 7 7 11 12 10 15 21 16 14 22 25 29 32 32 33 34 35 36 35 35 32 30 30 29 29 30 30 30 30 32 33 32 31 30 30 29 28 26 25 24 23 22 22 22 23 23 25 25 24 26 27 26 25 24 24 25 26 23 17 20 19 15 16 16 14 13 14 18 15 14 17 16 15 15 15 15 14 13 12 13 15 13 11 10 10
5 4 1 2 3 5 6 2 4 1 3 5 4 5 11 12 11 15 18 11 14 24 25 28 33 34 36 37 38 39 37 37 35 34 33 32 32 31 31 31 31 33 34 35 33 32 32 30 29 28 26 25 24 23 22 22 24 25 27 27 26 26 28 29 27 26 26 25 25 23 16 19 20 17 18 18 14 15 17 20 16 14 16 16 16 15 15 15 14 13 13 14 13 11 10 11 11
4 3 1 3 3 4 6 3 5 2 3 4 5 4 10 12 11 15 18 16 21 29 29 31 34 34 37 39 39 40 39 38 38 37 36 35 34 33 33 33 33 33 34 36 36 34 33 31 30 29 27 26 25 23 23 25 27 28 27 26 24 25 26 27 26 24 25 24 23 22 20 23 23 18 18 17 14 16 18 18 17 16 16 16 15 15 15 15 14 14 12 10 9 10 11 10 10
2 3 3 3 3 1 4 4 4 2 1 2 4 5 8 11 10 13 20 22 23 30 32 34 37 38 40 40 39 39 39 40 39 38 37 36 36 35 36 35 34 35 35 37 38 36 35 33 32 31 29 27 25 24 25 27 28 28 26 25 26 27 26 26 25 24 25 24 20 19 21 23 21 16 15 16 16 17 17 17 16 16 15 15 15 15 15 16 15 14 13 10 7 8 11 12 11
3 4 6 4 4 5 5 4 4 3 3 3 3 6 7 7 8 9 11 10 14 23 26 31 38 39 41 41 39 39 41 41 40 39 38 36 36 35 36 37 37 37 37 38 39 39 37 35 33 31 30 28 26 25 26 27 27 28 28 27 27 29 29 28 27 26 26 23 19 19 20 19 20 18 16 17 18 18 17 16 15 15 16 16 16 15 16 17 16 14 12 11 8 6 8 10 12
4 5 9 9 8 6 3 3 5 4 4 3 3 4 6 5 6 9 6 5 9 14 14 24 33 33 33 34 35 36 37 38 37 37 36 35 35 34 34 36 37 39 38 37 38 40 38 36 34 32 30 28 27 26 26 27 27 28 29 29 29 32 32 29 27 26 24 21 20 21 19 18 20 21 18 17 18 18 17 17 16 16 17 18 18 17 17 16 15 14 11 10 9 6 6 7 9
2 5 8 10 6 4 3 1 2 1 4 3 3 1 6 7 7 10 7 7 11 12 11 21 31 31 30 32 34 34 33 33 33 32 32 32 32 32 33 34 35 37 38 38 39 40 39 37 34 32 30 29 28 27 27 26 27 29 30 30 30 31 30 28 26 26 23 20 21 21 20 21 22 22 21 19 19 19 18 18 17 17 19 20 19 17 17 16 14 13 12 10 9 7 6 6 6
3 4 5 7 6 6 5 5 3 3 3 3 2 4 3 7 8 7 5 7 10 12 13 18 25 30 31 32 32 31 30 29 29 28 27 27 28 29 30 31 32 34 36 38 39 40 40 37 34 32 31 30 29 27 27 27 27 29 32 32 31 30 28 26 26 25 22 21 23 21 21 23 23 23 23 21 21 20 19 19 19 20 21 20 19 17 16 15 13 12 12 11 9 7 6 5 5
4 2 6 6 6 5 4 5 3 1 3 4 1 4 2 7 7 5 3 4 8 13 14 14 20 25 25 23 21 19 19 18 18 17 17 17 19 21 24 27 29 32 35 36 38 39 38 37 34 33 31 30 29 28 27 27 28 29 30 31 31 30 28 26 26 24 21 23 25 23 23 24 24 25 24 23 22 21 20 20 21 22 21 20 19 18 16 14 12 11 10 10 9 8 6 5 4
4 6 7 6 6 5 5 4 3 4 3 7 6 6 3 6 5 3 2 2 7 12 11 10 17 21 17 13 10 8 9 9 8 9 10 12 14 15 18 22 26 29 31 34 36 37 37 36 35 34 32 30 29 29 27 27 28 28 28 29 30 30 29 27 27 25 23 26 27 24 25 26 25 25 25 24 22 22 22 23 23 22 21 21 19 18 16 15 13 11 10 10 9 8 7 6 5
9 7 6 7 6 5 4 2 4 3 5 8 6 10 6 4 5 4 3 4 7 9 8 8 13 14 10 6 5 5 6 7 8 10 12 15 16 16 17 20 23 26 29 32 35 36 36 36 36 34 32 30 30 29 27 27 27 27 28 29 29 30 29 29 29 28 26 29 29 26 27 27 27 26 25 25 24 25 26 25 24 23 22 21 20 18 16 14 14 12 12 11 10 9 8 7 5
7 4 5 4 3 4 4 4 4 1 6 5 1 6 6 5 6 5 6 7 7 7 7 7 10 12 9 5 5 7 9 11 13 16 18 19 19 18 18 19 21 24 28 31 33 35 35 35 35 34 33 32 31 29 28 27 27 28 28 29 30 31 31 32 32 30 29 30 30 28 28 29 29 28 26 27 28 29 28 27 26 25 23 22 20 19 17 15 14 13 12 11 11 10 8 7 5
4 4 6 4 2 3 3 3 1 3 7 3 1 1 3 7 9 8 11 14 11 10 12 13 15 18 18 15 14 17 18 19 21 23 23 22 20 18 18 18 20 22 25 29 31 34 35 35 36 36 34 33 32 31 29 28 28 30 32 31 31 31 30 30 28 28 29 29 29 28 29 31 31 29 29 31 32 31 30 29 27 26 24 23 21 20 18 16 15 14 13 12 11 10 8 7 5
5 5 6 4 2 1 3 3 1 4 6 3 2 2 2 5 7 10 16 18 17 17 21 23 23 24 26 27 27 26 26 26 26 25 22 20 17 16 16 17 18 20 23 27 30 32 34 36 36 36 36 34 32 31 30 30 30 33 34 34 33 31 29 27 26 28 29 29 28 27 28 32 32 30 33 34 33 32 31 29 28 26 25 23 22 20 18 17 15 14 13 12 11 10 8 6 4
5 3 5 5 5 5 4 3 3 4 4 3 3 2 3 4 4 7 12 16 18 20 24 25 27 29 29 29 28 26 26 25 24 22 19 17 16 15 15 16 17 19 21 25 29 31 34 36 37 37 36 35 33 32 31 32 32 33 34 35 34 31 30 28 27 29 30 29 29 27 28 32 32 32 35 35 33 32 31 30 29 27 26 24 23 21 19 17 16 15 14 12 10 9 7 6 4
2 2 4 3 5 5 1 3 5 3 2 4 2 4 5 5 6 9 10 13 15 17 17 18 24 26 23 23 24 22 22 22 21 20 18 16 15 14 15 15 16 18 20 23 27 30 33 35 36 37 36 35 33 33 32 32 33 33 34 35 34 32 31 30 29 30 31 31 29 28 30 32 32 35 36 34 34 33 32 31 30 28 27 25 23 21 19 17 16 15 14 12 10 9 8 6 6
2 3 4 4 4 6 3 2 1 4 1 4 2 5 5 3 7 11 9 11 12 12 11 14 21 20 16 21 23 20 19 19 19 17 13 12 12 13 14 15 17 18 19 22 25 28 31 34 36 37 36 35 34 34 33 33 33 32 32 33 32 32 33 32 32 32 32 31 28 27 30 33 34 37 37 35 35 34 32 31 30 29 28 25 24 21 19 17 16 15 14 12 11 10 9 8 8
5 4 6 2 2 3 4 1 2 3 2 5 2 5 5 2 5 5 2 7 12 12 10 15 20 16 17 23 21 16 15 15 14 12 9 9 10 11 13 14 16 17 18 20 23 27 30 33 36 37 37 36 35 35 34 34 33 31 31 32 32 33 34 33 34 33 31 29 28 29 32 35 38 39 37 36 36 34 33 32 31 30 28 27 24 22 20 19 17 16 15 14 12 11 10 10 9
4 5 5 4 2 1 2 2 2 1 3 5 4 5 4 5 6 3 2 8 11 11 10 10 12 13 18 20 13 10 11 11 11 9 8 8 9 10 12 13 15 16 17 19 22 26 30 33 35 37 37 36 35 35 35 36 35 32 31 32 33 33 34 35 36 32 29 29 30 31 34 37 40 40 38 37 37 35 34 33 32 31 29 28 25 23 21 20 19 17 16 15 13 12 12 11 10
3 2 3 2 2 4 3 3 3 3 3 3 4 5 4 6 7 7 10 11 9 9 9 7 9 13 15 13 6 6 10 10 10 9 8 8 9 10 11 12 14 14 16 18 21 25 29 32 35 37 38 37 36 36 36 37 36 33 32 32 33 34 35 37 36 31 29 30 31 33 36 40 41 40 39 38 37 36 35 34 33 32 30 29 26 24 23 21 20 19 17 15 14 13 12 12 11
3 4 5 3 1 2 1 1 2 4 3 2 2 6 7 6 5 9 12 11 10 11 9 7 11 13 11 9 3 6 11 11 11 11 9 9 9 10 10 11 13 14 16 18 20 24 27 31 35 37 38 39 38 38 37 37 36 34 34 33 33 34 34 33 32 31 31 31 32 34 38 41 42 40 39 38 37 37 36 35 34 32 31 29 27 25 24 22 21 20 18 17 16 14 13 13 13
7 7 8 9 6 4 3 3 2 2 2 4 3 6 10 5 5 8 10 8 10 11 9 7 11 12 11 8 3 5 10 13 14 13 12 11 10 10 10 11 13 15 17 18 20 23 27 31 34 37 39 40 39 38 37 37 36 35 35 35 34 34 33 30 30 31 32 33 34 36 39 42 42 40 39 39 38 37 36 35 34 33 31 30 27 26 24 23 22 20 19 18 17 15 14 14 13
Wind_Direction
268 271 300 232 59 31 34 78 87 20 67 90 6 92 223 233 211 167 223 275 264 329 139 146 136 141 139 117 143 118 77 119 149 128 164 158 157 167 161 156 153 149 150 147 143 138 139 135 130 125 116 111 107 106 105 103 99 94 92 95 102 108 109 102 92 79 68 60 53 54 70 77 69 64 58 49 45 41 46 50 52 56 58 60 62 65 70 73 74 74 73 71 66 60 55 53 54
262 270 298 173 21 6 179 59 83 350 51 86 272 169 235 300 129 179 208 213 154 118 109 116 121 124 111 95 104 87 54 63 109 113 132 144 153 162 159 160 153 150 154 155 151 145 146 138 131 127 119 115 114 117 115 112 105 97 93 93 99 105 107 102 89 72 58 50 44 49 76 85 74 62 54 47 46 44 48 52 56 58 60 62 62 64 68 71 73 73 72 71 67 61 57 55 55
259 268 235 182 28 47 115 52 77 79 73 122 254 239 249 132 182 204 211 171 135 120 110 108 103 95 85 84 75 75 82 94 114 118 132 145 155 158 160 162 154 155 157 158 156 151 148 136 130 130 126 123 121 123 120 115 105 98 94 93 97 102 104 97 79 60 47 38 39 52 82 90 77 61 55 53 53 53 56 56 58 60 61 63 64 65 67 71 73 73 73 72 69 65 63 62 60
242 222 164 169 65 58 78 44 114 117 110 173 225 250 231 176 196 221 182 149 138 124 112 107 83 51 54 93 96 89 111 123 126 129 139 149 158 162 161 161 159 158 159 160 157 155 151 140 141 140 137 135 131 127 121 112 104 100 97 98 99 103 104 94 77 55 39 33 45 63 86 94 84 67 61 60 57 57 58 57 58 60 61 62 65 67 68 71 74 75 75 73 71 70 69 69 66
163 161 207 202 125 67 84 73 106 105 171 182 156 245 242 195 189 206 164 156 159 137 93 114 100 87 84 95 105 105 133 141 137 138 145 153 161 163 162 162 161 159 160 163 159 160 157 152 155 150 148 145 139 133 121 110 107 105 102 104 103 103 101 93 79 54 42 43 59 73 84 89 83 70 64 62 58 58 57 55 56 58 60 61 64 67 70 72 75 76 75 73 71 72 72 72 71
140 86 81 129 101 89 106 99 106 104 206 170 142 238 236 199 182 168 158 169 193 197 215 213 158 137 103 83 95 127 139 143 148 146 146 155 162 164 166 163 160 161 163 165 163 164 160 158 163 156 154 152 147 142 125 114 111 109 108 106 102 100 97 91 79 58 55 62 71 76 79 80 75 68 64 63 59 58 57 55 55 57 60 61 63 66 70 73 76 78 78 76 74 76 75 74 73
150 95 76 105 71 47 98 117 160 170 191 168 168 222 208 190 174 151 147 157 196 217 234 216 151 128 105 100 111 144 150 153 157 151 147 152 161 167 171 164 160 165 166 166 165 166 162 162 168 160 157 159 155 150 137 126 117 113 111 109 104 96 91 85 75 66 69 77 79 77 78 76 72 68 66 65 62 59 57 56 56 58 60 61 62 65 71 75 78 81 82 83 81 81 78 77 75
161 162 71 99 41 28 87 96 184 183 169 220 240 225 192 179 171 158 155 148 161 197 198 170 145 114 159 155 144 171 169 165 163 159 153 152 160 167 172 165 160 167 169 168 167 169 167 167 171 163 163 168 162 158 150 137 125 121 117 114 107 96 89 83 75 73 78 84 83 81 79 75 72 68 66 66 62 60 58 57 57 57 58 59 62 65 71 76 80 83 85 86 85 83 81 80 77
144 183 88 88 67 42 53 33 265 233 270 272 271 231 187 179 178 169 149 136 160 175 169 162 147 358 183 180 180 178 177 173 169 166 159 155 163 170 172 164 161 168 171 171 170 172 171 171 173 169 170 172 169 169 161 148 139 133 125 121 113 103 95 88 86 84 88 88 86 86 80 73 71 67 64 65 61 60 60 58 57 55 55 58 61 66 72 77 81 85 86 87 87 86 85 83 80
94 98 115 85 77 53 35 345 277 244 263 279 272 230 184 184 184 175 147 123 148 163 168 172 248 228 172 185 180 176 183 179 169 168 166 161 165 175 172 163 165 172 174 174 172 174 177 176 175 176 178 179 180 179 170 162 155 145 134 130 123 118 107 98 99 96 97 95 92 87 79 73 68 66 62 61 60 59 59 58 57 53 53 57 60 66 72 77 81 84 86 86 86 86 85 82 80
60 66 102 79 78 91 172 205 260 267 276 304 289 227 186 186 179 156 140 128 151 161 176 192 248 177 161 190 190 185 190 181 172 171 170 167 169 175 174 167 168 175 179 179 176 179 185 184 183 183 182 186 190 187 181 172 168 159 149 147 141 130 118 112 108 102 102 99 97 85 73 72 66 67 64 60 62 61 58 58 58 56 56 58 61 66 70 76 79 82 83 83 83 82 81 80 77
131 35 78 85 118 166 188 169 227 283 313 323 274 203 193 190 185 170 152 143 163 165 184 194 213 168 150 241 200 196 195 184 176 175 174 171 172 170 172 173 169 173 181 184 181 183 190 191 191 192 189 190 193 196 195 185 183 177 170 172 164 144 130 127 121 113 108 101 97 87 74 75 72 71 69 67 66 63 59 57 59 60 61 63 66 70 72 75 78 80 80 80 79 77 76 74 72
167 132 89 95 141 150 153 143 222 309 328 277 213 203 198 195 214 197 163 142 163 158 182 198 193 171 166 243 206 204 197 190 182 178 178 176 176 169 171 177 174 174 181 188 189 187 189 193 198 198 195 194 195 198 202 198 190 187 195 193 182 166 156 156 144 133 121 110 102 92 86 86 85 81 80 76 68 62 56 54 58 61 66 67 71 76 77 78 78 79 79 78 76 75 73 71 69
143 132 97 106 103 112 141 137 227 184 246 255 222 208 189 195 234 204 167 145 179 169 187 198 178 174 210 207 218 212 198 193 188 182 182 182 180 173 174 183 179 179 185 192 199 198 193 196 201 200 197 195 198 203 206 204 195 198 208 197 192 188 182 186 165 151 142 129 120 104 94 89 88 88 89 81 65 60 54 50 55 60 66 70 76 82 81 79 79 79 79 78 76 75 73 72 70
128 110 87 104 80 83 161 169 155 154 228 235 189 197 183 198 221 196 177 163 198 186 172 175 170 180 226 199 231 218 203 198 193 187 188 187 185 178 182 192 184 185 192 194 200 203 198 200 203 204 202 197 202 207 209 208 204 208 209 200 203 205 193 193 187 173 161 148 137 122 104 79 75 80 86 79 65 62 55 50 54 60 65 68 75 82 81 78 78 79 79 78 76 74 71 70 68
119 101 75 89 112 172 176 169 119 128 248 217 180 187 171 198 185 181 191 178 194 186 173 174 185 206 222 212 247 224 207 203 198 194 194 192 193 186 186 196 194 197 196 193 202 203 197 199 204 208 204 202 207 206 207 209 208 211 209 204 207 210 201 192 193 192 178 163 157 151 145 103 73 74 81 76 70 65 55 49 51 60 64 66 71 78 77 75 79 80 80 78 74 70 66 65 65
105 85 70 89 152 189 185 173 166 164 236 221 190 185 159 169 179 183 204 201 202 191 188 193 205 218 232 242 253 229 209 206 204 200 198 197 202 199 194 198 201 207 199 194 202 203 205 206 206 211 206 207 211 208 208 208 208 213 210 205 206 209 205 199 197 198 192 184 182 181 182 160 160 170 133 116 92 80 65 48 46 61 68 67 70 75 72 72 79 82 81 77 71 66 63 64 63
90 94 95 145 177 193 187 179 189 167 196 207 189 186 172 167 182 183 193 203 209 201 205 211 221 226 235 251 247 225 209 206 208 207 205 202 205 208 206 206 206 212 209 206 208 206 212 213 206 213 215 214 215 214 211 209 212 213 211 208 210 210 208 210 204 198 199 198 201 201 201 197 202 223 212 185 170 124 80 39 40 65 77 74 74 77 74 71 76 80 78 72 66 62 61 65 63
82 101 101 195 195 201 193 180 190 171 85 190 180 187 189 183 179 178 195 210 194 204 220 223 231 231 234 244 234 216 207 206 211 213 214 211 212 214 214 215 215 218 220 223 224 219 219 215 213 218 223 219 219 222 212 210 214 212 213 213 214 213 210 211 202 200 205 204 210 212 207 208 215 226 222 208 202 170 81 39 51 77 92 90 85 89 88 78 77 77 73 67 62 61 63 66 61
82 97 102 233 209 218 211 190 201 209 270 172 175 189 198 195 180 181 203 204 201 221 222 222 230 231 232 233 224 214 207 208 213 216 219 219 220 221 224 225 226 228 228 231 232 232 229 221 222 227 226 214 212 227 224 215 212 210 215 216 216 216 212 210 205 207 213 212 217 218 212 212 221 231 227 215 201 184 116 90 121 119 119 112 101 97 95 83 81 85 80 72 64 61 63 65 58
91 106 158 219 184 184 213 204 222 218 216 181 178 177 199 206 189 192 191 165 254 242 230 229 236 241 239 232 224 219 214 213 215 218 221 223 224 226 231 235 238 238 235 237 237 237 236 229 227 229 231 221 216 228 235 224 214 215 219 219 220 219 217 215 215 219 217 219 221 218 219 217 220 229 217 206 202 197 159 162 165 145 149 137 112 96 82 71 70 83 80 68 63 57 55 61 57
84 58 226 166 145 130 186 190 206 198 193 181 173 165 198 201 198 211 198 190 238 245 243 241 246 252 253 246 236 228 222 220 221 223 225 226 228 229 233 237 240 243 243 243 243 243 242 237 233 230 231 230 228 233 236 229 222 224 225 223 222 221 222 220 221 223 220 221 222 220 217 203 209 218 199 200 210 202 174 178 176 151 166 167 120 99 69 56 53 60 52 45 51 49 44 46 50
102 353 253 158 152 83 128 162 169 178 179 175 172 184 203 189 212 232 218 224 236 244 259 250 248 247 247 251 245 239 234 229 228 230 232 231 232 233 236 240 243 247 249 248 248 249 248 244 240 237 232 233 236 237 237 231 227 230 228 228 228 226 224 225 225 224 223 224 220 217 206 190 201 217 204 214 216 195 180 179 171 159 178 194 143 117 61 48 43 37 44 44 34 27 28 28 26
106 95 206 180 212 295 141 151 152 154 171 178 177 195 209 200 219 249 235 238 241 245 254 255 257 248 242 244 243 247 246 241 238 236 237 237 237 238 240 245 247 249 249 249 249 249 251 250 246 243 238 237 237 238 240 234 229 232 230 224 227 231 227 227 229 226 225 227 224 216 207 206 217 224 219 222 210 191 186 188 173 170 195 200 153 102 58 49 26 355 106 54 10 356 2 7 3
63 133 199 181 216 241 166 156 160 157 166 178 186 204 219 226 236 264 253 249 247 246 251 254 258 255 248 245 243 246 245 244 242 238 238 237 237 238 241 244 246 247 248 248 249 249 249 248 248 247 244 239 236 238 239 236 230 229 231 220 217 228 231 228 229 229 223 223 228 220 214 226 231 227 227 214 204 199 203 203 187 182 201 176 147 94 156 104 11 251 141 13 336 329 339 353 0
41 136 164 159 123 153 175 180 167 173 188 181 203 231 244 250 268 270 260 258 255 249 250 252 254 254 252 249 246 244 244 244 241 239 241 240 239 239 240 243 244 244 245 245 245 245 245 246 248 249 248 243 237 235 237 238 233 228 232 227 222 226 229 225 224 229 216 210 225 226 222 230 230 225 224 214 208 215 219 210 204 203 210 186 167 184 190 186 256 236 230 294 299 314 334 351 7
99 110 118 102 41 330 224 219 206 203 214 209 215 247 270 257 276 259 258 261 257 251 249 250 251 250 250 249 246 244 243 242 240 240 240 241 243 244 243 241 241 240 238 239 239 240 242 244 246 247 247 244 239 236 237 239 236 234 229 224 229 233 232 224 224 232 220 215 224 222 221 224 225 221 217 217 215 222 221 205 208 216 218 200 194 187 193 209 236 235 235 239 256 326 336 348 16
82 88 121 25 0 301 252 239 245 227 236 246 212 269 294 331 189 246 251 258 260 258 254 251 249 248 247 246 245 242 242 239 237 238 239 243 250 254 251 244 242 239 236 236 237 239 240 240 243 244 243 241 241 238 237 239 237 236 228 224 229 230 232 224 224 238 224 222 227 219 223 222 221 219 212 215 217 223 219 204 209 217 210 196 203 217 211 219 236 227 214 203 246 315 330 348 19
65 64 165 325 360 344 263 254 242 205 229 259 152 322 295 233 232 246 251 254 256 257 256 254 250 247 245 244 244 242 241 237 234 237 239 244 252 258 256 250 246 243 240 239 238 239 239 239 239 241 241 239 240 237 237 238 237 237 234 230 223 218 229 226 225 237 217 217 224 213 220 222 219 218 210 211 215 221 218 208 212 221 221 209 216 233 229 229 232 215 196 196 259 306 325 347 3
74 56 75 337 2 343 284 339 202 181 201 180 137 267 278 252 248 248 250 251 250 251 252 254 253 250 245 242 243 243 240 236 236 239 242 246 252 256 255 251 246 244 242 239 237 237 238 239 238 239 241 240 239 238 237 235 237 240 236 229 223 220 229 225 218 223 211 219 227 209 213 224 226 224 215 208 208 215 216 215 223 232 240 233 226 229 234 234 222 203 192 211 257 292 302 306 323
50 28 45 31 8 285 291 345 155 156 208 173 137 230 266 268 269 262 252 249 248 251 252 254 254 252 249 245 243 244 242 239 240 241 242 247 252 254 253 249 245 242 240 238 236 236 237 239 239 239 240 241 241 240 238 235 235 239 236 226 225 222 215 212 213 216 218 229 235 221 221 225 227 235 230 215 211 215 219 225 229 228 233 239 236 230 231 224 206 190 193 226 247 261 261 263 279
28 16 310 352 136 270 305 275 161 143 199 165 137 245 268 271 277 286 263 245 242 249 254 255 255 254 252 250 247 246 245 241 242 243 244 248 251 252 250 247 244 241 239 238 237 236 237 239 240 241 242 242 242 239 238 235 232 236 237 229 225 222 214 217 224 224 221 226 228 227 228 222 215 225 226 224 232 230 223 226 222 214 222 240 243 230 220 208 192 182 198 237 255 255 246 235 235
0 62 239 281 153 279 318 311 198 150 96 172 179 245 268 281 287 314 279 244 240 247 256 257 257 258 254 253 252 251 249 245 245 247 248 250 251 252 249 245 242 240 239 237 237 236 237 239 241 244 245 244 243 240 236 233 231 233 235 229 223 216 216 226 230 225 224 225 228 235 232 217 210 213 213 225 238 226 214 218 218 216 221 232 226 210 197 186 184 191 214 243 257 247 229 221 222
319 18 230 241 201 221 299 316 263 104 92 214 224 232 250 268 284 291 296 279 254 249 260 264 264 264 260 258 256 255 253 250 249 248 250 251 252 252 249 245 241 239 238 236 236 235 236 238 240 243 245 245 243 239 235 230 230 230 225 225 226 219 219 228 229 224 229 232 234 239 229 212 213 215 217 225 225 220 218 221 224 220 213 205 194 183 177 181 194 213 233 237 226 211 214 223 231
213 195 170 257 243 213 252 283 249 133 77 235 219 250 259 266 277 275 275 275 260 258 266 269 269 268 266 263 259 258 257 255 254 250 249 251 252 252 250 246 242 239 237 236 235 234 236 236 237 240 242 243 241 239 236 226 225 225 221 222 227 226 223 224 224 221 222 226 235 242 229 213 216 216 219 223 221 223 222 224 222 208 201 199 190 184 188 203 215 224 235 219 192 192 210 228 228
162 174 151 178 218 249 237 247 260 188 169 240 225 240 258 263 271 273 273 269 258 263 267 267 268 267 265 263 261 259 257 258 258 255 252 250 251 251 250 248 244 240 238 237 236 235 235 235 236 238 240 241 238 236 233 226 222 221 225 227 218 212 212 209 211 217 222 231 243 246 224 212 221 218 217 223 217 213 214 216 209 198 203 206 203 205 210 219 222 225 226 205 195 198 207 212 205
116 125 129 172 199 267 255 248 293 217 171 251 236 237 262 266 264 267 272 273 259 259 262 263 265 265 264 263 262 261 260 261 261 259 256 254 252 251 250 248 244 241 239 238 237 236 235 235 236 236 238 240 238 234 231 227 222 216 219 222 214 210 211 212 216 227 238 242 246 245 215 206 223 214 209 221 209 195 205 204 197 202 211 212 215 218 219 220 219 217 208 197 203 206 194 184 192
86 120 149 262 207 253 256 238 306 328 175 268 288 273 269 267 267 267 268 264 253 253 254 258 262 264 264 263 263 264 264 265 264 261 259 256 254 252 250 248 245 242 240 239 238 237 236 235 236 236 236 236 236 235 227 220 220 217 215 220 226 223 219 224 232 238 241 243 248 248 218 201 216 209 205 216 199 183 199 201 201 217 221 218 219 216 214 213 208 202 195 190 194 196 189 187 193
74 111 127 283 250 271 283 302 335 12 181 273 337 317 274 269 269 267 260 248 251 256 255 259 262 262 262 262 263 265 267 267 266 263 261 259 257 254 251 249 248 245 241 240 239 238 237 235 235 236 235 233 232 229 221 217 220 220 220 224 226 219 219 229 235 236 239 248 253 242 216 204 212 212 205 202 186 182 199 209 216 224 221 216 215 211 207 198 188 183 182 187 184 183 191 193 191
118 139 150 257 260 271 284 301 332 9 153 277 319 305 278 272 268 262 259 253 256 262 261 262 262 260 262 263 264 266 267 268 268 267 264 261 259 256 254 252 250 247 242 240 239 237 237 236 235 235 234 232 229 225 221 223 223 219 221 223 219 219 226 228 229 235 241 250 249 225 209 205 204 206 200 188 184 191 202 211 214 215 212 209 207 205 196 181 175 171 170 177 178 178 187 188 189
241 186 181 223 238 218 235 291 325 345 7 15 349 311 284 274 270 265 273 274 268 265 262 262 261 260 262 263 264 265 266 268 269 270 269 266 263 260 258 255 251 248 244 242 240 238 238 237 235 234 233 231 228 226 226 226 224 220 220 221 220 222 223 225 231 236 237 242 237 213 204 199 193 197 199 190 188 195 202 206 207 208 210 205 196 188 180 172 168 164 160 163 162 162 181 187 188
274 229 202 214 223 220 240 347 5 1 336 346 26 315 284 299 281 263 288 326 287 271 259 260 264 264 263 263 266 267 268 270 271 272 272 271 269 265 259 255 251 250 248 245 242 240 239 238 235 232 231 231 229 229 229 226 222 222 224 224 218 215 218 227 232 229 235 240 224 207 201 195 191 196 199 193 190 194 199 204 208 208 204 192 178 174 174 170 164 158 152 153 157 152 165 186 191
282 248 206 210 206 190 200 106 48 308 266 288 68 173 273 302 280 263 277 285 277 277 268 264 268 269 266 266 269 271 272 273 274 274 274 272 271 267 261 256 253 252 250 245 241 239 238 237 235 233 231 230 229 230 230 227 221 218 222 224 221 221 228 234 229 227 240 234 213 207 202 195 193 196 197 194 193 196 201 207 207 197 186 175 168 171 173 168 160 155 150 149 153 152 156 178 194
237 248 166 171 174 186 192 155 173 239 266 302 68 133 258 286 273 274 289 279 280 281 273 270 269 268 269 269 271 274 276 277 277 277 276 275 273 269 266 263 257 253 249 244 240 239 237 235 234 232 231 230 230 230 229 228 225 218 218 221 226 232 239 238 230 232 238 222 212 210 200 196 197 194 194 194 196 201 203 203 194 182 175 169 167 172 172 165 158 154 152 150 153 158 157 166 185
246 210 120 136 152 160 140 124 167 343 0 293 225 132 233 267 271 307 333 276 277 274 267 269 272 274 277 277 277 280 281 281 281 281 282 282 281 277 271 266 260 254 249 246 243 240 236 234 233 231 230 229 229 230 228 225 225 224 222 223 227 231 236 235 229 233 233 218 213 210 199 198 199 194 194 197 200 202 199 193 184 176 173 170 168 171 169 161 157 155 153 151 156 163 158 157 170
186 132 94 81 78 81 83 104 117 52 338 257 210 157 223 268 263 292 350 244 251 261 263 266 274 281 287 287 285 288 285 285 287 291 296 297 294 285 271 263 258 254 250 246 244 241 236 233 232 231 230 229 229 231 229 225 223 224 223 221 224 227 227 224 222 230 231 217 211 209 202 200 199 198 199 201 201 198 191 184 180 176 175 174 171 171 170 163 160 160 157 154 157 158 152 151 154
138 112 69 54 39 41 52 55 77 65 279 266 203 176 195 270 268 228 214 221 224 242 264 275 278 285 293 292 291 287 278 279 284 292 299 301 298 286 268 258 254 251 249 245 243 241 236 233 232 232 232 230 230 229 228 226 223 223 222 219 221 223 223 223 227 233 228 214 211 209 205 203 202 203 205 202 197 190 184 181 179 178 177 177 172 171 171 166 164 162 159 157 156 153 148 145 139
120 88 82 75 354 9 24 356 47 122 253 282 256 181 180 233 257 235 245 263 242 227 245 263 273 280 280 267 274 289 285 280 284 292 296 298 296 288 274 261 252 247 245 243 243 241 236 233 232 232 232 231 231 229 225 224 222 222 223 220 221 226 230 235 237 234 224 215 214 211 209 207 204 206 206 198 190 184 181 180 179 179 180 178 175 173 171 169 167 163 160 158 153 152 149 138 125
92 96 112 104 337 356 346 302 87 223 253 285 335 174 188 236 253 255 261 266 253 231 234 242 255 268 275 275 276 284 284 281 285 292 296 297 295 289 280 269 258 250 245 242 242 241 237 233 231 231 231 231 230 227 224 222 218 218 221 221 225 231 236 237 233 226 221 220 222 221 217 210 206 206 201 191 186 183 181 181 180 181 181 179 177 175 174 171 169 164 161 158 154 152 146 133 118
161 147 142 140 137 162 258 264 268 262 269 287 258 239 255 264 266 244 242 251 251 247 249 253 258 266 274 278 280 283 284 284 288 293 296 296 293 288 281 274 265 256 249 244 242 240 237 233 230 230 230 230 229 225 224 222 217 217 221 225 230 232 233 232 226 220 222 225 230 234 226 213 208 204 195 188 185 183 182 182 182 182 182 181 179 178 177 173 169 166 164 160 158 156 147 137 128
185 158 138 159 167 173 213 218 214 246 282 304 276 230 197 207 254 237 237 259 265 258 256 258 261 264 269 275 279 284 287 290 293 296 298 297 292 286 278 271 266 258 251 245 242 240 238 235 232 230 230 229 227 225 223 222 220 219 221 227 230 229 228 229 225 223 227 231 235 237 226 212 206 200 192 188 186 184 184 184 183 184 184 183 181 181 180 177 173 171 169 166 164 162 158 155 162
216 112 117 200 195 155 151 199 178 179 310 308 251 228 214 211 274 272 253 266 270 261 259 259 258 259 264 270 276 284 289 293 296 298 301 299 293 286 278 271 264 257 250 245 242 240 238 236 234 232 231 230 228 226 224 222 222 222 223 227 228 225 224 226 225 226 233 239 238 232 220 209 202 197 192 189 188 187 186 185 185 186 186 185 184 184 183 181 178 177 174 172 171 173 176 181 194
165 143 179 220 176 123 107 242 74 80 265 274 221 245 284 313 286 273 253 258 266 263 259 256 256 259 264 268 272 279 286 293 299 302 302 298 294 289 282 275 267 260 254 248 244 242 240 238 236 233 232 230 227 226 226 225 225 225 226 226 224 221 221 223 226 232 238 239 232 223 214 207 200 196 194 192 191 189 188 188 187 187 188 188 187 186 185 184 183 181 180 179 181 185 192 200 210
134 188 202 175 90 92 106 206 347 45 242 271 251 244 276 300 274 289 274 250 262 265 256 255 259 258 259 263 266 275 286 298 305 309 309 302 299 292 285 279 272 265 259 253 247 244 242 239 237 235 234 233 230 228 227 228 228 227 226 224 221 220 222 226 232 237 237 230 220 214 210 204 199 197 196 194 193 192 191 190 190 190 190 190 190 189 189 189 188 187 185 187 192 197 203 211 221
136 182 172 120 142 199 115 162 213 172 240 276 285 270 248 207 231 270 224 224 242 257 256 254 257 246 244 252 258 275 295 313 319 319 320 315 310 301 290 281 274 267 261 254 248 244 241 239 237 235 236 236 233 229 228 228 229 228 226 225 223 224 226 231 235 234 228 221 215 211 207 203 200 199 198 197 196 195 193 192 193 194 194 193 193 194 194 194 194 193 193 194 199 204 211 219 228
57 105 125 105 163 182 163 160 170 175 219 262 304 307 259 217 208 200 218 223 217 239 249 243 248 243 237 234 240 297 311 324 326 321 321 321 319 310 297 284 275 269 261 254 247 243 241 239 237 235 235 235 233 231 230 229 229 227 226 226 226 227 230 235 234 228 223 220 215 211 206 203 202 201 200 200 199 198 197 196 196 196 197 197 197 197 198 198 197 197 199 201 206 211 217 226 233
149 164 174 187 169 123 155 198 133 140 167 193 277 288 265 239 195 190 213 222 211 218 225 226 233 232 225 213 201 333 324 324 325 321 320 324 325 318 305 290 277 265 257 251 246 244 241 238 237 235 235 235 234 233 232 232 230 226 224 226 228 230 234 236 231 224 223 220 215 211 207 204 204 204 203 203 202 201 201 200 200 200 200 201 201 201 201 201 200 201 202 206 211 216 223 231 236
182 191 195 194 176 143 172 233 215 130 164 181 181 265 268 248 192 198 207 220 224 212 200 219 230 219 211 201 170 351 331 326 327 323 317 317 320 319 311 297 282 269 260 253 247 243 240 237 236 235 235 237 237 236 235 234 232 228 224 225 228 232 235 236 231 226 224 220 214 210 207 206 207 207 206 206 205 204 204 204 204 203 203 204 205 205 205 204 204 205 207 211 216 222 229 235 238